Location: Chuathbaluk
(61.5726°N, 159.2454°W)
Time: 23:43:22
(UTC+00:00)

Transit 2A - Pass Details

Date: 05 December 2020
Orbit: 598 x 960 km, 66.7° (Epoch: 20 January)

Event Time Altitude Azimuth Distance (km) Brightness Sun altitude
Rises 05:29:21 0° 255° (WSW) 3,566 10.6 -26.9°
Reaches altitude 10° 05:32:01 10° 258° (WSW) 2,586 9.6 -27.2°
Maximum altitude 05:37:58 62° 339° (NNW) 955 6.4 -27.9°
Enters shadow 05:38:25 60° 3° (N) 966 6.4 -28.0°
Drops below altitude 10° 05:43:23 10° 61° (ENE) 2,358 - -28.6°
Sets 05:45:43 0° 65° (ENE) 3,230 - -28.8°
